Weather History for Lakeland Region, FL

Change the Weather History Date:

Wednesday, July 17, 2013

  Actual Average Record
Temperature  
Mean Temperature 80 °F -  
Max Temperature 89 °F 88 °F 95 °F (1988)
Min Temperature 71 °F 71 °F 51 °F (2001)
Cooling Degree Days 15    
Growing Degree Days 30 (Base 50)    
Moisture  
Dew Point 71 °F    
Average Humidity 85    
Maximum Humidity 94    
Minimum Humidity 52    
Precipitation  
Precipitation 0.00 in - - ()
Sea Level Pressure  
Sea Level Pressure 30.14 in    
Wind  
Wind Speed 7 mph (ENE)    
Max Wind Speed 17 mph    
Max Gust Speed 26 mph    
Visibility 11 miles    
Events Rain    
Averages and records for this station are not official NWS values.
T = Trace of Precipitation, MM = Missing Value Source: NWS Daily Summary

Daily Weather History Graph

Daily Weather History Graph

Search for Another Location

Airport:

Trip Planner

Search our weather history database for the weather conditions in past years. The results will help you decide how hot, cold, wet, or windy it might be!

Date:

Astronomy

Jul. 17, 2013 Rise Set
Actual Time 6:42 AM EDT 8:25 PM EDT
Civil Twilight 6:16 AM EDT 8:51 PM EDT
Nautical Twilight 5:45 AM EDT 9:22 PM EDT
Astronomical Twilight 5:12 AM EDT 9:55 PM EDT
Moon 3:19 PM EDT (7/17) 1:39 AM EDT (7/17)
Length of Visible Light 14h 35m
Length of Day
13h 42m
Waxing Gibbous, 67% of the Moon is Illuminated
Jul 17
Waxing Gibbous
Jul 22
Full
Jul 29
Last Quarter
Aug 6
New
Aug 14
First Quarter

Hourly Weather History & Observations

Time (EDT) Temp. Heat Index Dew Point Humidity Pressure Visibility Wind Dir Wind Speed Gust Speed Precip Events Conditions
12:15 AM 73.4 °F - 71.6 °F 94% 30.17 in 10.0 mi NE 4.6 mph - N/A   Clear
12:35 AM 73.4 °F - 71.6 °F 94% 30.17 in 10.0 mi NE 4.6 mph - N/A   Clear
12:55 AM 73.4 °F - 71.6 °F 94% 30.17 in 10.0 mi NE 5.8 mph - N/A   Clear
1:15 AM 73.4 °F - 71.6 °F 94% 30.16 in 10.0 mi NE 5.8 mph - N/A   Clear
1:35 AM 73.4 °F - 71.6 °F 94% 30.16 in 10.0 mi ENE 6.9 mph - N/A   Clear
1:55 AM 73.4 °F - 71.6 °F 94% 30.15 in 10.0 mi ENE 6.9 mph - N/A   Clear
2:15 AM 73.4 °F - 71.6 °F 94% 30.15 in - NE 4.6 mph - N/A   Unknown
2:35 AM 73.4 °F - 71.6 °F 94% 30.14 in 10.0 mi NNE 4.6 mph - N/A   Clear
2:55 AM 73.4 °F - 71.6 °F 94% 30.14 in 10.0 mi NNE 3.5 mph - N/A   Clear
3:15 AM 73.4 °F - 71.6 °F 94% 30.13 in 10.0 mi NE 5.8 mph - N/A   Clear
3:35 AM 73.4 °F - 71.6 °F 94% 30.13 in 10.0 mi NE 4.6 mph - N/A   Clear
3:55 AM 73.4 °F - 71.6 °F 94% 30.13 in 10.0 mi ENE 6.9 mph - N/A   Clear
4:15 AM 73.4 °F - 71.6 °F 94% 30.13 in 10.0 mi NE 8.1 mph - N/A   Clear
4:35 AM 73.4 °F - 71.6 °F 94% 30.13 in 10.0 mi ENE 5.8 mph - N/A   Clear
4:55 AM 73.4 °F - 71.6 °F 94% 30.13 in 10.0 mi NE 5.8 mph - N/A   Clear
5:15 AM 73.4 °F - 71.6 °F 94% 30.13 in 10.0 mi NE 5.8 mph - N/A   Clear
5:35 AM 73.4 °F - 71.6 °F 94% 30.13 in 10.0 mi NE 5.8 mph - N/A   Clear
5:55 AM 73.4 °F - 71.6 °F 94% 30.13 in 10.0 mi NE 8.1 mph - N/A   Clear
6:15 AM 73.4 °F - 71.6 °F 94% 30.13 in 10.0 mi NE 6.9 mph - N/A   Clear
6:35 AM 73.4 °F - 71.6 °F 94% 30.14 in 10.0 mi NE 6.9 mph - N/A   Clear
6:56 AM 73.4 °F - 71.6 °F 94% 30.14 in 10.0 mi NNE 6.9 mph - N/A   Scattered Clouds
7:50 AM 75.2 °F - 73.4 °F 94% 30.16 in 8.0 mi ENE 8.1 mph - N/A   Mostly Cloudy
8:55 AM 78.8 °F - 73.4 °F 83% 30.18 in 10.0 mi ENE 8.1 mph - N/A   Mostly Cloudy
9:18 AM 80.6 °F 85.4 °F 73.4 °F 79% 30.18 in 10.0 mi ENE 9.2 mph - N/A   Mostly Cloudy
9:50 AM 82.4 °F 88.2 °F 73.4 °F 74% 30.16 in 10.0 mi East 8.1 mph - N/A   Mostly Cloudy
10:50 AM 82.4 °F 87.2 °F 71.6 °F 70% 30.16 in 10.0 mi ENE 12.7 mph - N/A   Mostly Cloudy
11:56 AM 84.2 °F 88.4 °F 69.8 °F 62% 30.16 in 20.0 mi East 10.4 mph - N/A   Mostly Cloudy
12:50 PM 87.8 °F 92.6 °F 69.8 °F 55% 30.15 in 20.0 mi East 13.8 mph - N/A   Mostly Cloudy
1:50 PM 89.6 °F 94.7 °F 69.8 °F 52% 30.13 in 20.0 mi East 15.0 mph - N/A   Mostly Cloudy
2:50 PM 82.4 °F 87.2 °F 71.6 °F 70% 30.11 in 20.0 mi East 11.5 mph - N/A   Mostly Cloudy
3:37 PM 89.6 °F 94.7 °F 69.8 °F 52% 30.11 in 10.0 mi SE 13.8 mph 21.9 mph N/A Rain Rain
3:50 PM 80.6 °F 85.4 °F 73.4 °F 79% 30.11 in 10.0 mi NE 17.3 mph 26.5 mph N/A Rain Rain
4:50 PM 77.0 °F - 68.0 °F 74% 30.14 in 15.0 mi SE 4.6 mph - N/A   Overcast
5:50 PM 77.0 °F - 69.8 °F 78% 30.12 in 15.0 mi NE 5.8 mph - N/A   Overcast
6:50 PM 77.0 °F - 69.8 °F 78% 30.09 in 15.0 mi ENE 5.8 mph - N/A   Overcast
7:50 PM 78.8 °F - 71.6 °F 78% 30.10 in 15.0 mi East 5.8 mph - N/A   Mostly Cloudy
8:50 PM 78.8 °F - 69.8 °F 74% 30.12 in 10.0 mi East 5.8 mph - N/A   Mostly Cloudy
9:50 PM 77.0 °F - 68.0 °F 74% 30.13 in 10.0 mi ESE 9.2 mph - N/A   Mostly Cloudy
10:55 PM 71.6 °F - 69.8 °F 94% 30.15 in 10.0 mi East 5.8 mph - N/A   Light Drizzle
11:15 PM 71.6 °F - 69.8 °F 94% 30.14 in 10.0 mi East 4.6 mph - N/A   Scattered Clouds
11:35 PM 71.6 °F - 69.8 °F 94% 30.14 in 10.0 mi East 3.5 mph - N/A   Clear
11:55 PM 73.4 °F - 69.8 °F 88% 30.13 in - ENE 5.8 mph - N/A   Unknown